www.pogodaiklimat.ru

Погода и климат >> Архив погоды >> Австралия >> Woomera Aerodrome


ПОГОДА в Woomera Aerodrome

  • Прогноз погоды в Woomera Aerodrome
  • Монитор погоды в Woomera Aerodrome
  • Климат города

АРХИВ ПОГОДЫ в Woomera Aerodrome

Время (UTC), дата Ветер
(напр.,м/с)
 
Видим.   Явления Облачность Т
(С)
Тd
(С)
f
(%)
Тe
(С)
Тes
(С)
Комфортность P
(гПа)
Po
(гПа)
Тmin
(С)
Tmax
(С)
R
(мм)
R24
(мм)
S
(см)
07 10.12 Ю 6 н/о н/о +30.4 +8.7 26 +30 +30 жарко 1011.8 992.6
08 10.12 Ю 4 н/о н/о +30.1 +8.5 26 +29 +29 жарко 1012.2 993.0
09 10.12 Ю 8 н/о н/о +28.3 +7.5 27 +28 +28 жарко 1013.1 993.8
10 10.12 Ю 6 н/о н/о +27.5 +10.7 35 +28 +28 жарко 1013.6 994.3
11 10.12 ЮВ 6 н/о н/о +26.6 +11.9 40 +28 +28 жарко 1013.4 994.1
12 10.12 ЮВ 5 н/о н/о +26.1 +11.5 40 +27 +27 жарко 1013.3 994.0
13 10.12 ЮВ 3 н/о н/о +24.8 +11.0 42 +26 +26 жарко 1013.4 994.1
14 10.12 Ю 4 н/о н/о +23.8 +8.2 37 +24 +24 комфорт 1013.1 993.8
15 10.12 ЮВ 5 н/о н/о +23.3 +7.0 35 +24 +24 комфорт 1012.4 993.2
16 10.12 ЮВ 5 н/о н/о +22.4 +7.4 38 +23 +23 комфорт 1011.4 992.2
17 10.12 ЮВ 5 н/о н/о +21.9 +7.7 40 +23 +23 комфорт 1010.7 991.5
18 10.12 ЮВ 4 н/о н/о +21.0 +8.0 43 +22 +22 комфорт 1010.6 991.4
19 10.12 Ю 2 н/о н/о +20.4 +8.1 45 +22 +22 комфорт 1011.4 992.2
20 10.12 Ю 4 н/о н/о +20.7 +8.4 45 +22 +22 комфорт 1011.6 992.4
21 10.12 ЮВ 4 н/о н/о +21.9 +9.8 46 +23 +23 комфорт 1011.5 992.3
22 10.12 ЮВ 4 н/о н/о +23.6 +11.3 46 +25 +25 комфорт 1012.1 992.9
23 10.12 В 6 н/о н/о +26.3 +12.4 42 +28 +28 жарко 1012.4 993.2
00 11.12 В 6 н/о н/о +29.1 +12.5 36 +30 +30 жарко 1012.0 992.8
01 11.12 В 4 н/о н/о +31.3 +12.6 32 +32 +32 жарко 1011.4 992.2
02 11.12 С 3 н/о н/о +32.3 +12.0 29 +33 +33 жарко 1010.7 991.5
03 11.12 С 3 н/о н/о +33.8 +10.4 24 +33 +33 жарко 1009.9 990.7
04 11.12 Ю 4 н/о н/о +34.6 +10.4 23 +34 +34 очень
жарко
1008.9 989.7
05 11.12 З 3 н/о н/о +36.2 +9.7 20 +35 +35 очень
жарко
1007.7 988.6
06 11.12 ЮЗ 6 н/о н/о +36.9 +7.8 17 +35 +35 очень
жарко
1007.4 988.3
07 11.12 З 6 н/о н/о +35.0 +8.7 20 +33 +33 жарко 1007.3 988.2
08 11.12 З 10 н/о н/о +30.3 +11.8 32 +31 +31 жарко 1009.0 989.8
09 11.12 ЮЗ 8 н/о н/о +27.4 +14.8 46 +30 +30 жарко 1009.6 990.4
10 11.12 ЮВ 4 н/о н/о +27.4 +15.1 47 +30 +30 жарко 1008.4 989.2
11 11.12 ЮВ 4 н/о н/о +27.0 +14.1 45 +29 +29 жарко 1008.2 989.0
12 11.12 ЮВ 4 н/о н/о +26.4 +13.2 44 +28 +28 жарко 1008.0 988.8
13 11.12 ЮВ 5 н/о н/о +26.4 +12.5 42 +28 +28 жарко 1007.7 988.6
14 11.12 В 4 н/о н/о +25.3 +13.8 49 +28 +28 жарко 1007.1 988.0
15 11.12 В 4 н/о н/о +25.1 +13.3 48 +27 +27 жарко 1006.5 987.4
16 11.12 В 3 н/о н/о +24.1 +13.0 50 +26 +26 жарко 1005.9 986.8
17 11.12 СВ 2 н/о н/о +22.8 +12.4 52 +26 +26 жарко 1004.8 985.7
18 11.12 З 3 н/о н/о +21.7 +12.3 55 +24 +24 комфорт 1005.2 986.1
19 11.12 З 3 н/о н/о +22.8 +12.7 53 +26 +26 жарко 1005.8 986.7
20 11.12 З 7 н/о н/о +25.0 +13.2 48 +27 +27 жарко 1007.3 988.2
21 11.12 З 4 н/о н/о +25.7 +13.2 46 +28 +28 жарко 1006.6 987.5
22 11.12 СЗ 3 н/о н/о +23.9 +16.9 65 +28 +28 душно 1006.9 987.8
23 11.12 СЗ 6 н/о н/о +23.5 +16.8 66 +27 +27 душно 1006.5 987.4
00 12.12 С 5 н/о н/о +25.6 +17.3 60 +30 +30 душно 1005.4 986.3
01 12.12 С 6 н/о н/о +27.7 +16.6 51 +31 +31 душно 1005.6 986.5
02 12.12 СЗ 7 н/о н/о +33.0 +13.1 30 +34 +34 очень
жарко
1005.2 986.1
03 12.12 З 9 н/о н/о +34.0 +12.4 27 +34 +34 очень
жарко
1004.1 985.0
04 12.12 З 10 н/о н/о +32.6 +12.8 30 +33 +33 жарко 1003.7 984.6
05 12.12 З 11 н/о н/о +33.1 +11.6 27 +33 +33 жарко 1003.3 984.2
06 12.12 З 12 н/о н/о +35.0 +10.8 23 +34 +34 очень
жарко
1002.3 983.3
07 12.12 З 13 н/о н/о +35.1 +10.9 23 +34 +34 очень
жарко
1001.6 982.6
08 12.12 З 10 н/о н/о +35.1 +11.5 24 +35 +35 очень
жарко
1001.5 982.5
09 12.12 З 12 н/о н/о +33.3 +11.8 27 +33 +33 жарко 1002.3 983.3
10 12.12 ЮЗ 12 н/о н/о +30.1 +11.6 32 +31 +31 жарко 1003.4 984.3
11 12.12 ЮЗ 13 н/о н/о +27.1 +11.6 38 +28 +28 жарко 1004.7 985.6
12 12.12 ЮЗ 10 н/о н/о +24.8 +11.7 44 +26 +26 жарко 1005.9 986.8
13 12.12 ЮЗ 12 н/о н/о +22.7 +12.6 53 +25 +25 комфорт 1007.3 988.2
14 12.12 ЮЗ 11 н/о н/о +20.1 +12.8 63 +21 +21 комфорт 1008.2 989.0
15 12.12 ЮЗ 13 н/о н/о +19.9 +13.8 68 +21 +21 комфорт 1008.6 989.4
16 12.12 ЮЗ 12 н/о н/о +18.0 +9.9 59 +17 +17 1009.0 989.8
17 12.12 ЮЗ 11 н/о н/о +17.5 +10.6 64 +16 +16 1008.4 989.2
18 12.12 ЮЗ 13 н/о н/о +17.5 +12.0 70 +16 +16 1009.0 989.8
19 12.12 ЮЗ 13 н/о н/о +16.9 +9.6 62 +15 +15 1009.9 990.7
20 12.12 ЮЗ 11 н/о н/о +15.9 +7.7 58 +14 +14 1010.7 991.5
21 12.12 ЮЗ 11 н/о н/о +16.4 +6.2 51 +15 +15 1011.0 991.8
22 12.12 ЮЗ 11 н/о н/о +17.3 +7.6 53 +16 +16 1011.5 992.3
23 12.12 Ю 11 н/о н/о +17.7 +6.6 48 +16 +16 1011.7 992.5
00 13.12 ЮЗ 12 н/о н/о +18.2 +4.4 40 +17 +17 1011.9 992.7
01 13.12 ЮЗ 12 н/о н/о +19.8 +3.9 35 +19 +19 1011.7 992.5
02 13.12 ЮЗ 14 н/о н/о +20.9 +1.7 28 +20 +20 1011.7 992.5
03 13.12 ЮЗ 13 н/о н/о +21.6 +0.2 24 +21 +21 комфорт 1011.1 991.9
04 13.12 Ю 13 н/о н/о +22.5 -0.9 21 +22 +22 комфорт 1010.5 991.3
05 13.12 ЮЗ 13 н/о н/о +22.5 -0.9 21 +22 +22 комфорт 1010.6 991.4
06 13.12 ЮЗ 13 н/о н/о +23.2 -1.7 19 +22 +22 комфорт 1010.2 991.0
07 13.12 ЮЗ 13 н/о н/о +22.6 -0.2 22 +22 +22 комфорт 1010.1 990.9
08 13.12 ЮЗ 13 н/о н/о +20.8 -2.3 21 +20 +20 1010.5 991.3
09 13.12 ЮЗ 13 н/о н/о +19.6 -2.7 22 +18 +18 1010.9 991.7
10 13.12 ЮЗ 13 н/о н/о +17.8 -0.5 29 +16 +16 1011.6 992.4
11 13.12 Ю 12 н/о н/о +16.4 -0.3 32 +14 +14 1012.3 993.1
12 13.12 Ю 11 н/о н/о +15.2 +1.7 40 +13 +13 1013.1 993.8
13 13.12 Ю 10 н/о н/о +14.1 -0.7 36 +12 +12 1013.3 994.0
14 13.12 Ю 11 н/о н/о +13.2 +0.3 41 +10 +10 1012.7 993.5
15 13.12 Ю 10 н/о н/о +12.4 +0.8 45 +9 +9 1012.4 993.2
16 13.12 ЮЗ 8 н/о н/о +11.7 +1.1 48 +9 +9 1011.9 992.7
17 13.12 ЮЗ 9 н/о н/о +11.4 +2.4 54 +8 +8 1011.4 992.2
18 13.12 ЮЗ 9 н/о н/о +11.0 +2.6 56 +8 +8 1010.8 991.6
19 13.12 ЮЗ 8 н/о н/о +10.9 +2.7 57 +7 +7 1010.5 991.3
20 13.12 ЮЗ 7 н/о н/о +11.2 +2.8 56 +8 +8 1010.5 991.3
21 13.12 ЮЗ 8 н/о н/о +12.5 +3.2 53 +10 +10 1011.0 991.8
22 13.12 ЮЗ 10 н/о н/о +14.0 +4.0 51 +11 +11 1011.0 991.8
23 13.12 ЮЗ 11 н/о н/о +14.8 +5.1 52 +12 +12 1010.7 991.5
00 14.12 ЮЗ 11 н/о н/о +16.0 +5.6 50 +14 +14 1010.3 991.1
01 14.12 ЮЗ 11 н/о н/о +17.7 +6.3 47 +16 +16 1009.5 990.3
02 14.12 ЮЗ 11 н/о н/о +17.9 +6.7 48 +17 +17 1009.0 989.8
03 14.12 ЮЗ 11 н/о н/о +17.1 +7.5 53 +15 +15 1008.7 989.5
04 14.12 ЮЗ 12 н/о н/о +18.0 +8.6 54 +17 +17 1008.3 989.1
05 14.12 ЮЗ 12 н/о н/о +19.2 +9.4 53 +19 +19 1007.9 988.7
06 14.12 ЮЗ 12 н/о н/о +19.3 +10.0 55 +19 +19 1007.0 987.9
07 14.12 ЮЗ 12 н/о н/о +19.7 +10.1 54 +20 +20 1006.7 987.6
08 14.12 ЮЗ 11 н/о н/о +19.5 +10.5 56 +20 +20 1006.8 987.7
09 14.12 ЮЗ 11 н/о н/о +18.8 +10.6 59 +18 +18 1007.3 988.2
10 14.12 ЮЗ 10 н/о н/о +18.3 +11.1 63 +17 +17 1007.5 988.4
11 14.12 ЮЗ 10 н/о н/о +17.6 +11.6 68 +16 +16 1008.2 989.0
12 14.12 ЮЗ 8 н/о н/о +17.3 +12.0 71 +16 +16 1008.6 989.4
13 14.12 ЮЗ 8 н/о н/о +17.0 +11.9 72 +16 +16 1008.2 989.0
14 14.12 ЮЗ 9 н/о н/о +16.6 +12.2 75 +15 +15 1007.7 988.6
15 14.12 ЮЗ 7 н/о н/о +16.2 +12.4 78 +15 +15 1007.3 988.2
16 14.12 ЮЗ 6 н/о н/о +15.4 +12.9 85 +14 +14 1006.5 987.4
17 14.12 ЮЗ 8 н/о н/о +15.1 +13.1 88 +13 +13 1006.2 987.1
18 14.12 ЮЗ 7 н/о н/о +14.8 +13.7 93 +13 +13 1006.0 986.9
19 14.12 ЮЗ 6 н/о н/о +15.3 +13.0 86 +14 +14 1006.0 986.9
20 14.12 Ю 6 н/о н/о +15.6 +12.5 82 +14 +14 1006.5 987.4
21 14.12 ЮЗ 8 н/о н/о +15.9 +12.3 79 +14 +14 1006.9 987.8
22 14.12 ЮЗ 8 н/о н/о +16.8 +12.3 75 +15 +15 1007.4 988.3
23 14.12 ЮЗ 7 н/о н/о +19.2 +12.5 65 +20 +20 1007.6 988.5
00 15.12 Ю 6 н/о н/о +20.9 +12.1 57 +23 +23 комфорт 1007.6 988.5
01 15.12 ЮЗ 5 н/о н/о +21.4 +11.7 54 +23 +23 комфорт 1007.3 988.2
02 15.12 Ю 5 н/о н/о +22.2 +10.7 48 +24 +24 комфорт 1006.9 987.8
03 15.12 З 7 н/о н/о +22.3 +11.1 49 +24 +24 комфорт 1006.4 987.3
04 15.12 ЮЗ 6 н/о н/о +24.2 +10.1 41 +25 +25 комфорт 1005.6 986.5
05 15.12 ЮЗ 6 н/о н/о +24.7 +9.8 39 +26 +26 жарко 1005.0 985.9
06 15.12 ЮЗ 6 н/о н/о +25.7 +10.3 38 +27 +27 жарко 1004.6 985.5
07 15.12 ЮЗ 6 н/о н/о +25.4 +9.7 37 +26 +26 жарко 1004.5 985.4
08 15.12 ЮЗ 6 н/о н/о +25.6 +9.8 37 +26 +26 жарко 1004.6 985.5
09 15.12 ЮЗ 7 н/о н/о +25.0 +10.5 40 +26 +26 жарко 1004.9 985.8
10 15.12 ЮЗ 6 н/о н/о +23.5 +10.6 44 +25 +25 комфорт 1005.3 986.2
11 15.12 ЮЗ 5 н/о н/о +22.6 +10.4 46 +24 +24 комфорт 1005.8 986.7
12 15.12 ЮЗ 5 н/о н/о +22.1 +11.2 50 +24 +24 комфорт 1006.6 987.5
13 15.12 ЮЗ 5 н/о н/о +20.9 +11.8 56 +23 +23 комфорт 1006.8 987.7
14 15.12 ЮЗ 6 н/о н/о +19.9 +13.1 65 +21 +21 комфорт 1007.0 987.9
15 15.12 ЮЗ 4 н/о н/о +19.1 +13.1 68 +20 +20 1007.0 987.9
16 15.12 ЮЗ 5 н/о н/о +18.8 +13.9 73 +19 +19 1006.8 987.7
17 15.12 Ю 6 н/о н/о +18.2 +13.9 76 +18 +18 1006.7 987.6
18 15.12 Ю 6 н/о н/о +17.8 +13.5 76 +17 +17 1006.9 987.8
19 15.12 Ю 6 н/о н/о +17.3 +13.4 78 +16 +16 1007.3 988.2
20 15.12 Ю 4 н/о н/о +17.0 +13.1 78 +17 +17 1008.0 988.8
21 15.12 Ю 5 н/о н/о +18.2 +13.1 72 +18 +18 1008.7 989.5
22 15.12 Ю 7 н/о н/о +19.3 +13.5 69 +20 +20 1009.6 990.4
23 15.12 Ю 5 н/о н/о +20.1 +13.1 64 +22 +22 комфорт 1009.9 990.7
00 16.12 ЮЗ 4 н/о н/о +21.0 +12.7 59 +24 +24 комфорт 1009.8 990.6
01 16.12 ЮЗ 5 н/о н/о +23.5 +13.1 52 +26 +26 жарко 1009.6 990.4
02 16.12 ЮЗ 5 н/о н/о +24.5 +12.8 48 +26 +26 жарко 1009.5 990.3
03 16.12 ЮЗ 6 н/о н/о +26.0 +12.5 43 +28 +28 жарко 1008.8 989.6
04 16.12 Ю 4 н/о н/о +28.0 +12.4 38 +29 +29 жарко 1008.1 988.9
05 16.12 Ю 6 н/о н/о +28.4 +12.3 37 +30 +30 жарко 1007.6 988.5
06 16.12 Ю 5 н/о н/о +29.2 +11.7 34 +30 +30 жарко 1006.8 987.7
07 16.12 Ю 5 н/о н/о +29.7 +11.2 32 +30 +30 жарко 1006.6 987.5
08 16.12 Ю 4 н/о н/о +29.7 +11.7 33 +30 +30 жарко 1006.5 987.4
09 16.12 Ю 5 н/о н/о +29.4 +11.0 32 +30 +30 жарко 1007.0 987.9
10 16.12 Ю 4 н/о н/о +28.1 +10.3 33 +29 +29 жарко 1007.4 988.3
11 16.12 Ю 3 н/о н/о +26.4 +10.5 37 +27 +27 жарко 1008.2 989.0
12 16.12 Ю 3 н/о н/о +25.1 +10.6 40 +26 +26 жарко 1009.0 989.8
13 16.12 ЮВ 7 н/о н/о +24.9 +13.8 50 +27 +27 жарко 1009.5 990.3
14 16.12 ЮВ 6 н/о н/о +23.4 +14.1 56 +27 +27 душно 1009.4 990.2
15 16.12 ЮВ 8 н/о н/о +22.2 +13.8 59 +25 +25 комфорт 1008.9 989.7
16 16.12 ЮВ 7 н/о н/о +21.2 +13.4 61 +24 +24 комфорт 1008.2 989.0
17 16.12 ЮВ 6 н/о н/о +20.3 +13.3 64 +22 +22 комфорт 1008.3 989.1
18 16.12 ЮВ 5 н/о н/о +19.4 +12.9 66 +21 +21 комфорт 1008.4 989.2
19 16.12 ЮВ 5 н/о н/о +18.9 +13.3 70 +20 +20 1009.3 990.1
20 16.12 ЮВ 6 н/о н/о +18.5 +13.6 73 +19 +19 1009.3 990.1
21 16.12 ЮВ 7 н/о н/о +20.0 +14.4 70 +22 +22 комфорт 1009.7 990.5
22 16.12 В 7 н/о н/о +22.6 +15.0 62 +26 +26 жарко 1010.0 990.8
23 16.12 В 6 н/о н/о +25.8 +14.3 49 +28 +28 жарко 1010.4 991.2
00 17.12 В 6 н/о н/о +28.1 +14.0 42 +30 +30 жарко 1010.2 991.0
01 17.12 В 4 н/о н/о +30.2 +12.6 34 +31 +31 жарко 1010.0 990.8
02 17.12 СВ 4 н/о н/о +32.4 +12.1 29 +33 +33 жарко 1009.5 990.3
03 17.12 В 4 н/о н/о +33.0 +11.5 27 +33 +33 жарко 1008.7 989.5
04 17.12 ЮВ 5 н/о н/о +34.9 +10.7 23 +34 +34 очень
жарко
1007.7 988.6
05 17.12 В 4 н/о н/о +35.7 +9.3 20 +34 +34 очень
жарко
1007.1 988.0
06 17.12 В 4 н/о н/о +35.2 +8.9 20 +34 +34 очень
жарко
1006.6 987.5

 

Местоположение метеостанции Woomera Aerodrome (Южная Австралия, Австралия): широта -31.15 долгота 136.81 высота над уровнем моря 167 м.

В архиве по умолчанию представлена погода в Woomera Aerodrome за последнюю неделю. Архивные данные за месяц целиком и за предыдущие месяцы, начиная с января 2011 года, Вы можете получить, выбрав интересующий диапазон дат из раскрывающегося списка и нажав кнопку "Ввод!".


*Определитесь, кто Вы:
робот инопланетянин человек

Внимание! Время в таблицах - всемирное. Для получения местного времени необходимо прибавить поправку, которая в Woomera Aerodrome равна 9.5 ч.

Смотрите также архив погоды в соседних городах и на ближайших метеорологических станциях:

Погода в Olympic Dam Aerodrome (Южная Австралия, Австралия) (75 км)
Погода в Leigh Creek Airport (Южная Австралия, Австралия) (165 км)
Погода в Port Augusta Arid Lands (Южная Австралия, Австралия) (175 км)
Погода в Marree Aero (Южная Австралия, Австралия) (205 км)
Погода в Tarcoola Aero (Южная Австралия, Австралия) (218 км)
Погода в Whyalla Airport (Южная Австралия, Австралия) (224 км)
Погода в Minnipa Pirsa (Южная Австралия, Австралия) (245 км)
Погода в Wudinna Aero (Южная Австралия, Австралия) (247 км)
Погода в Cleve Aerodrome (Южная Австралия, Австралия) (287 км)
Погода в Yunta Airstrip (Южная Австралия, Австралия) (305 км)

Пояснения к столбцам:

Ветер - указаны скорость ветра в м/с - средняя за 10 мин, порывы в срок и между сроками (в фигурных скобках) и направление, откуда дует ветер: С - северный, СВ - северо-восточный, В - восточный, ЮВ - юго-восточный, Ю - южный, ЮЗ - юго-западный, З - западный, СЗ - северо-западный.
Видимость - горизонтальная дальность видимости в метрах или километрах. При видимости от 1 до 10 км при отсутствии осадков обычно наблюдается дымка, при ухудшении видимости до 1 км и менее - туман. В сухую погоду видимость может ухудшаться дымом, пылью или мглою.
Явления - указаны атмосферные явления, наблюдавшиеся в срок или в последний час перед сроком; фигурными скобками обозначены явления, наблюдавшиеся между сроками (за 1-3 часа до срока); квадратными скобками обозначены град или гололедные отложения с указанием их диаметра в мм.
Облачность - указаны через наклонную черту общая и нижняя облачность в баллах и высота нижней границы облаков в метрах; квадратными скобками обозначены формы облаков: Ci - перистые, Cs - перисто-слоистые, Cc - перисто-кучевые, Ac - высококучевые, As - высокослоистые, Sc - слоисто-кучевые, Ns - слоисто-дождевые, Cu - кучевые, Cb - кучево-дождевые. Подробнее классификацию облаков см. в Атласе облаков (PDF).
T - Температура воздуха - температура, измеренная на высоте 2 м над землей.
Td - Температура точки росы - температура, при понижении до которой содержащийся в воздухе водяной пар достигнет насыщения.
f - Относительная влажность воздуха - влажноcть воздуха, измеренная на высоте 2 м над землей.
Te - Эффективная температура - температура, которую ощущает одетый по сезону человек в тени. Характеристика душности погоды. При расчете учитывается влияние влажности воздуха и скорости ветра на теплоощущения человека.
Tes - Эффективная температура на солнце - температура, которую ощущает человек, с поправкой на солнечный нагрев. Характеристика знойности погоды. Зависит от высоты солнца над горизонтом, облачности и скорости ветра. Ночью, в пасмурную погоду, а также при ветре 12 м/с и более поправка равна нулю.
P - Атмосферное давление - приведенное к уровню моря атмосферное давление.
Po - Атмосферное давление - измеренное на уровне метеостанции атмосферное давление.
Tmin - Минимальная температура - минимум температуры воздуха на высоте 2 м над землей.
Tmax - Максимальная температура - максимум температуры воздуха на высоте 2 м над землей.
R - Количество осадков - Количество выпавших осадков за период времени, мм. При наведении курсора мыши на число - период времени, за который выпало указанное количество осадков.
R24 - Количество осадков - Количество выпавших осадков за 24 часа, мм.
S - Снежный покров - Высота снежного покрова, см. При наведении курсора мыши на число - состояние снежного покрова и степень покрытия местности в баллах.